Location: Cahas Mountain Overlook
(37.0833°N, 80.1000°W)
Time: 13:24:53
(UTC-05:00)

S-56A Canister/Altair - Pass Details

Date: 02 December 2023
Orbit: 639 x 2488 km, 38.9° (Epoch: 02 March)

Event Time Altitude Azimuth Distance (km) Brightness Sun altitude
Rises 18:06:35 0° 283° (WNW) 3,308 11.9 -12.4°
Reaches altitude 10° 18:08:50 10° 276° (W) 2,530 11.3 -12.9°
Maximum altitude 18:14:30 44° 206° (SSW) 1,502 9.3 -13.9°
Drops below altitude 10° 18:22:43 10° 138° (SE) 3,667 10.7 -15.5°
Sets 18:26:38 0° 133° (SE) 4,966 11.4 -16.3°
